Weather History for Fayetteville, AR

Change the Weather History Date:

Tuesday, December 4, 2012

  Actual Average Record
Temperature  
Mean Temperature 48 °F 40 °F  
Max Temperature 65 °F 51 °F 71 °F (2001)
Min Temperature 31 °F 29 °F 13 °F (2006)
Degree Days  
Heating Degree Days 17 25  
Month to date heating degree days 18 98  
Since 1 July heating degree days 831 927  
Moisture  
Dew Point 49 °F    
Average Humidity 66    
Maximum Humidity 96    
Minimum Humidity 36    
Precipitation  
Precipitation 0.54 in 0.12 in 1.09 in (1999)
Month to date precipitation 0.54 0.49  
Year to date precipitation 28.45 45.76  
Sea Level Pressure  
Sea Level Pressure 30.11 in    
Wind  
Wind Speed 6 mph (NNW)    
Max Wind Speed 17 mph    
Max Gust Speed 22 mph    
Visibility 9 miles    
Events Rain , Thunderstorm    
T = Trace of Precipitation, MM = Missing Value Source: NWS Daily Summary

Daily Weather History Graph

Daily Weather History Graph

Search for Another Location

Airport:

Trip Planner

Search our weather history database for the weather conditions in past years. The results will help you decide how hot, cold, wet, or windy it might be!

Date:

Astronomy

Dec. 04, 2012 Rise Set
Actual Time 7:11 AM CST 5:02 PM CST
Civil Twilight 6:43 AM CST 5:30 PM CST
Nautical Twilight 6:11 AM CST 6:02 PM CST
Astronomical Twilight 5:40 AM CST 6:33 PM CST
Moon 10:43 PM CST (12/4) 11:12 AM CST (12/4)
Length of Visible Light 10h 46m
Length of Day
9h 50m
Waning Gibbous, 69% of the Moon is Illuminated
Dec 4
Waning Gibbous
Dec 6
Last Quarter
Dec 13
New
Dec 19
First Quarter
Dec 28
Full

Hourly Weather History & Observations

Time (CST) Temp. Windchill Dew Point Humidity Pressure Visibility Wind Dir Wind Speed Gust Speed Precip Events Conditions
12:53 AM 64.0 °F - 57.9 °F 80% 29.94 in 10.0 mi South 11.5 mph - N/A   Partly Cloudy
1:53 AM 64.9 °F - 59.0 °F 81% 29.95 in 10.0 mi South 10.4 mph 19.6 mph N/A   Overcast
2:21 AM 64.4 °F - 59.0 °F 83% 29.98 in 10.0 mi South 10.4 mph - N/A Thunderstorm Overcast
2:38 AM 64.4 °F - 59.0 °F 83% 29.97 in 10.0 mi South 11.5 mph - N/A   Overcast
2:45 AM 64.4 °F - 59.0 °F 83% 29.97 in 10.0 mi South 12.7 mph - N/A Thunderstorm Overcast
2:53 AM 64.9 °F - 59.0 °F 81% 29.95 in 10.0 mi WSW 8.1 mph - N/A Thunderstorm Thunderstorm
2:59 AM 64.4 °F - 60.8 °F 88% 30.00 in 2.5 mi WNW 9.2 mph - 0.12 in Rain , Thunderstorm Heavy Thunderstorms and Rain
3:07 AM 62.6 °F - 60.8 °F 94% 29.99 in 1.5 mi WNW 11.5 mph - 0.19 in Rain , Thunderstorm Thunderstorms and Rain
3:20 AM 62.6 °F - 60.8 °F 94% 29.98 in 3.0 mi West 6.9 mph - 0.31 in Rain , Thunderstorm Light Thunderstorms and Rain
3:50 AM 60.8 °F - 60.8 °F 100% 30.00 in 10.0 mi WNW 4.6 mph - 0.33 in   Overcast
3:53 AM 61.0 °F - 60.1 °F 97% 29.96 in 10.0 mi WNW 3.5 mph - 0.33 in   Overcast
4:04 AM 60.8 °F - 60.8 °F 100% 30.00 in 3.0 mi NW 4.6 mph - 0.05 in Rain Heavy Rain
4:11 AM 60.8 °F - 60.8 °F 100% 30.00 in 2.5 mi NW 4.6 mph - 0.08 in Rain Rain
4:16 AM 60.8 °F - 60.8 °F 100% 30.00 in 2.5 mi NW 4.6 mph - 0.09 in Rain , Thunderstorm Light Rain
4:26 AM 60.8 °F - 60.8 °F 100% 30.00 in 3.0 mi NW 8.1 mph - 0.12 in Rain , Thunderstorm Rain
4:53 AM 60.8 °F - 59.0 °F 94% 30.01 in 6.0 mi NW 8.1 mph - N/A Rain , Thunderstorm Light Thunderstorms and Rain
5:32 AM 55.4 °F - 53.6 °F 94% 30.04 in 10.0 mi NNW 11.5 mph - 0.06 in Rain , Thunderstorm Light Rain
5:53 AM 53.1 °F - 52.0 °F 96% 30.04 in 10.0 mi NNW 16.1 mph - 0.06 in   Overcast
6:53 AM 52.0 °F - 50.0 °F 93% 30.08 in 10.0 mi North 3.5 mph - N/A   Overcast
7:53 AM 52.0 °F - 48.9 °F 89% 30.12 in 10.0 mi Variable 4.6 mph - N/A   Overcast
8:40 AM 51.8 °F - 48.2 °F 88% 30.15 in 10.0 mi North 8.1 mph - N/A   Overcast
8:53 AM 52.0 °F - 48.9 °F 89% 30.14 in 10.0 mi North 5.8 mph 18.4 mph N/A   Overcast
9:53 AM 53.1 °F - 48.0 °F 83% 30.18 in 10.0 mi North 6.9 mph 16.1 mph N/A   Overcast
10:03 AM 53.6 °F - 46.4 °F 77% 30.19 in 10.0 mi NNE 8.1 mph - N/A   Overcast
10:53 AM 54.0 °F - 46.0 °F 75% 30.19 in 10.0 mi NNE 5.8 mph 16.1 mph N/A   Overcast
11:50 AM 57.2 °F - 46.4 °F 67% 30.21 in 10.0 mi NNE 5.8 mph - N/A   Scattered Clouds
11:53 AM 57.0 °F - 46.9 °F 69% 30.19 in 10.0 mi NNE 4.6 mph - N/A   Partly Cloudy
12:53 PM 60.1 °F - 43.0 °F 53% 30.18 in 10.0 mi North 10.4 mph 18.4 mph N/A   Clear
1:53 PM 61.0 °F - 37.0 °F 41% 30.17 in 10.0 mi North 9.2 mph 19.6 mph N/A   Clear
2:53 PM 61.0 °F - 35.1 °F 38% 30.18 in 10.0 mi Variable 6.9 mph - N/A   Clear
3:53 PM 60.1 °F - 34.0 °F 38% 30.21 in 10.0 mi Variable 6.9 mph - N/A   Clear
4:53 PM 55.9 °F - 35.1 °F 45% 30.22 in 10.0 mi North 4.6 mph - N/A   Clear
5:53 PM 52.0 °F - 35.1 °F 53% 30.24 in 10.0 mi North 4.6 mph - N/A   Clear
6:53 PM 50.0 °F - 34.0 °F 54% 30.25 in 10.0 mi NNE 3.5 mph - N/A   Clear
7:53 PM 41.0 °F - 35.1 °F 79% 30.28 in 10.0 mi Calm Calm - N/A   Clear
8:53 PM 39.0 °F 36.8 °F 36.0 °F 89% 30.31 in 10.0 mi South 3.5 mph - N/A   Clear
9:53 PM 36.0 °F - 34.0 °F 93% 30.33 in 10.0 mi Calm Calm - N/A   Clear
10:53 PM 35.1 °F - 33.1 °F 92% 30.32 in 10.0 mi Calm Calm - N/A   Clear
11:53 PM 33.1 °F - 32.0 °F 96% 30.33 in 10.0 mi Calm Calm - N/A   Clear